Weather in Kaluk

Russia / Republic of Dagestan     41°28′16″N   47°39′21″E
temp.,
°C
wind,
m/s
gust,
m/s
humid.,
%
clouds,
%
prec.,
mm/h
press.,
hPa
HPBL,
m
14 may, fri
fri1400:00+10w45592 0.0 101950
03:00+10w45555 0.0 101955
06:00+12w345619 0.0 101975
09:00+20ene11325 0.0 10161222
12:00+20e434019 0.1 10161574
15:00+19e225280 1.6 1016890
18:00+12wsw4485100 3.7 1019153
21:00+11w347532 3.9 101952
15 may, sat
sat1500:00+10w44775 0.0 101949
03:00+9w45773 0.1 101964
06:00+11w45723 0.0 1018119
09:00+18n11401 0.0 10151158
12:00+19e435018 0.1 10151438
15:00+18e2255100 3.7 10151026
18:00+11wnw467837 1.7 1018137
21:00+9w45764 1.7 101955
16 may, sun
sun1600:00+9w44755 0.0 101852
03:00+9w45721 0.0 101753
06:00+10w45640 0.0 1017117
09:00+18w23240 0.0 10141128
12:00+20ese24240 0.0 10111920
15:00+20se24270 0.0 10111589
18:00+16ssw33470 0.0 101294
21:00+9wsw56511 0.0 101582
17 may, mon
mon1700:00+9w564828 0.0 101483
03:00+9w574915 0.0 101381
06:00+11w5755100 0.0 1012110
09:00+21w233330 0.0 10081023
12:00+23ese14315 0.0 10072301
15:00+23ssw14268 0.0 10072213
18:00+19sw224337 0.0 100824
21:00+13w4643100 0.0 101263
18 may, tue
tue1800:00+14w564197 0.0 101284
03:00+12w464234 0.0 101160
06:00+15wnw1147100 0.0 101127
09:00+19e3339100 0.0 1009903
12:00+16ssw2452100 0.3 1012886
15:00+18ese465448 0.8 10101632
18:00+12ese348687 1.9 1013466
21:00+9w3486100 5.7 1017157